Regional Weather Roundup
Issued by NWS

Home | Current Version | Previous Version | Graphics & Text | Print | Product List | Glossary On
Versions: 1 2 3 4 5 6 7 8 9 10 11 12 13 14 15 16 17 18 19 20 21 22 23 24 25 26 27 28 29 30 31 32 33 34 35 36 37 38 39 40 41 42 43 44 45 46 47 48 49
000
ASUS43 KDMX 252207
RWRIA

WEATHER ROUNDUP FOR IOWA
NATIONAL WEATHER SERVICE DES MOINES IA
500 PM CDT FRI JUL 25 2014

NOTE: "FAIR" INDICATES FEW OR NO CLOUDS BELOW 12,000 FEET WITH NO
SIGNIFICANT WEATHER AND/OR OBSTRUCTIONS TO VISIBILITY.

* - THESE STATIONS ARE NOT NWS STATIONS...THUS NOT UNDER NWS
QUALITY CONTROL.  THEY ALSO DO NOT REPORT WEATHER SUCH
AS PRECIPITATION OR FOG.

IAZ001>003-012>014-020>022-031>034-043>046-252300-
   NORTHWEST IOWA

CITY           SKY/WX    TMP DP  RH WIND       PRES   REMARKS
CARROLL *      PTSUNNY   82  73  74 VRB6      29.78S HX  88
CHEROKEE *     CLOUDY    79  72  78 S3        29.78F HX  82
DENISON *      PTSUNNY   82  73  74 SE5       29.76S HX  88
LE MARS *      CLOUDY    82  72  69 CALM      29.78S HX  87
ORANGE CITY *  PTSUNNY   82  70  65 CALM      29.79S HX  86
SHELDON *      CLOUDY    81  70  69 CALM      29.78F HX  84
SIOUX CITY     CLOUDY    87  73  62 N3        29.76S HX  94
SPENCER        CLOUDY    79  70  74 S6        29.80S HX  82
STORM LAKE *   CLOUDY    77  73  88 SE5       29.81S
$$

IAZ055>058-069>071-079>083-090>094-252300-
   SOUTHWEST IOWA

CITY           SKY/WX    TMP DP  RH WIND       PRES   REMARKS
ATLANTIC *     SUNNY     84  75  74 SE9       29.75F HX  92
AUDUBON *      SUNNY     88  79  74 S6        29.79S HX 102
CLARINDA *     SUNNY     91  79  66 S9        29.74F HX 107
COUNCIL BLFS * SUNNY     90  81  74 E7        29.74S HX 108
CRESTON *      SUNNY     79  72  78 SE13G18   29.79S HX  82
HARLAN  *      PTSUNNY   86  77  74 VRB3      29.80R HX  97
LAMONI         MOSUNNY   80  70  71 SE9       29.79F HX  83
RED OAK *      SUNNY     91  79  66 SE7       29.73F HX 107
SHENANDOAH *   SUNNY     93  82  70 SE8       29.72S HX 117
$$

IAZ047>049-059>061-072>074-084-252300-
   CENTRAL IOWA

CITY           SKY/WX    TMP DP  RH WIND       PRES   REMARKS
AMES           MOSUNNY   79  69  71 S8        29.80F HX  81
ANKENY *       MOSUNNY   79  68  69 S8        29.80S HX  81
CHARITON *     SUNNY     79  70  73 S12G18    29.81S HX  81
DES MOINES     PTSUNNY   80  68  66 S9        29.79F HX  83
GRINNELL*      CLOUDY    75  68  78 S5        29.84S
KNOXVILLE *    SUNNY     79  70  73 S14       29.79F HX  81
MARSHALLTOWN   CLOUDY    77  69  76 S10       29.81S
PELLA *        MOSUNNY   81  70  69 S12       29.82F HX  84
PERRY *          N/A     81  70  69 SE6       29.79F HX  84
$$

IAZ004>006-015-016-023>025-035-036-252300-
   NORTH CENTRAL IOWA

CITY           SKY/WX    TMP DP  RH WIND       PRES   REMARKS
ALGONA *       MOSUNNY   79  70  73 VRB7G13   29.81F HX  81
CLARION *      CLOUDY    79  70  73 S7        29.81S HX  81
ESTHERVILLE    CLOUDY    77  69  76 S9        29.80F
FORT DODGE *   CLOUDY    79  68  69 S10       29.81S HX  81
MASON CITY     CLOUDY    76  68  76 SW8       29.84R
FOREST CITY *  CLOUDY    75  68  78 S7        29.82S
IOWA FALLS *   CLOUDY    77  68  73 S10       29.82S
$$

IAZ007>011-017>019-026>030-037>042-050>054-066-252300-
   NORTHEAST IOWA

CITY           SKY/WX    TMP DP  RH WIND       PRES   REMARKS
CEDAR RAPIDS   CLOUDY    75  66  73 S6        29.84S
CHARLES CITY * CLOUDY    79  68  69 S8        29.83S HX  81
CLINTON *      PTSUNNY   72  64  78 SE12      29.92F
DECORAH *      CLOUDY    75  66  73 VRB6G13   29.84F
DUBUQUE        CLOUDY    70  65  84 SE9       29.89F
MONTICELLO *   CLOUDY    75  66  73 SE12      29.87S
OELWEIN *      CLOUDY    77  68  73 S9        29.85S
WATERLOO       CLOUDY    79  66  64 SW13      29.81S HX  81
$$

IAZ064-065-067-068-078-252300-
   EAST CENTRAL IOWA

CITY           SKY/WX    TMP DP  RH WIND       PRES   REMARKS
DAVENPORT      CLOUDY    73  64  73 S7        29.89F
IOWA CITY      CLOUDY    75  67  76 S9        29.86S
MT. PLEASANT * CLOUDY    77  64  65 S9        29.86S
MUSCATINE *    CLOUDY    75  66  73 S9        29.86S
QUAD CITIES    CLOUDY    75  63  66 S6        29.88F
$$

IAZ062-063-075>077-085>089-095>099-252300-
   SOUTHEAST IOWA

CITY           SKY/WX    TMP DP  RH WIND       PRES   REMARKS
BURLINGTON     PTSUNNY   76  64  66 SW18G24   29.86R
FAIRFIELD *    PTSUNNY   77  68  73 S13G18    29.84F
FORT MADISON * CLOUDY    77  66  69 S9G16     29.87R
KEOKUK *       SUNNY     77  66  69 S9G17     29.85R
OSKALOOSA *      N/A     79  70  73 S13       29.82F HX  81
CENTERVILLE *  SUNNY     77  70  78 SE8       29.84S
OTTUMWA        MOSUNNY   78  69  73 S10       29.82F HX  80
WASHINGTON *   CLOUDY    77  70  78 S12       29.85S
$$

ABBREVIATIONS USED IN REMARKS
   TC - TEMPERATURES IN CELSIUS
  WCI - WIND CHILL INDEX
   HX - HEAT INDEX
  VSB - VISIBILITY
$$




USA.gov is the U.S. government's official web portal to all federal, state and local government web resources and services.